Vorticity
2 1 1 0 0 0 0 0 1 2 2 2 2 2 2 4 4 6 6 7 6 6 5 4 4 4 4 4 5 5 5 5 5 4 5 5 5 5 5 5 5 5 5 5 5 5 5 5 6 6 6 6 6 6 6 6 6 6 6 6 7 7 7 7 7 8 8 8 8
1 0 -0 -0 -0 -0 0 0 1 1 2 2 2 2 3 4 5 6 7 7 6 6 4 4 4 4 4 4 5 5 5 5 4 4 4 4 5 5 5 5 5 5 5 5 5 5 6 6 6 6 6 6 6 6 6 6 6 6 6 7 7 7 7 8 8 8 8 8 9
-0 -1 -1 -1 -1 -0 -0 0 1 1 2 2 3 3 4 5 6 7 7 7 6 5 4 4 4 4 4 5 4 4 4 5 5 4 4 5 5 5 5 5 5 6 6 6 6 6 6 6 6 6 6 6 6 6 6 6 7 7 7 7 7 7 8 8 8 9 9 9 9
-1 -1 -1 -1 -1 -0 0 0 1 2 2 3 3 4 5 6 7 8 8 7 6 4 4 3 4 4 4 4 4 4 4 4 4 4 5 5 5 5 5 5 6 6 6 6 6 6 6 6 6 6 6 6 6 6 7 6 7 7 8 7 8 8 8 9 9 9 9 10 10
-1 -1 -1 -1 -1 -0 0 1 1 2 2 3 4 5 6 8 8 8 7 6 5 4 3 3 4 4 4 4 4 4 4 4 4 5 5 5 5 6 6 6 6 6 6 6 6 6 6 6 6 6 6 6 7 7 7 6 7 7 8 8 8 9 9 9 10 10 10 10 10
-1 -1 -1 -1 -0 -0 0 1 2 2 3 4 4 6 7 9 9 8 7 5 4 3 3 3 4 4 4 4 4 4 4 4 5 5 5 6 6 6 6 6 6 6 6 6 6 6 6 6 6 6 6 6 7 7 7 7 7 7 8 8 9 9 10 10 10 10 10 10 10
-2 -2 -2 -1 -0 0 1 2 3 4 4 5 6 8 9 10 9 7 6 4 3 2 3 3 4 4 4 4 4 4 5 5 5 6 6 6 6 6 6 6 6 6 6 6 6 6 6 6 6 6 7 7 7 7 7 8 8 8 8 9 10 10 10 10 10 11 11 11 11
-1 -1 -1 -0 1 2 2 3 4 5 6 7 9 10 10 9 8 6 4 3 2 2 3 4 4 4 4 5 5 5 5 5 6 6 6 6 6 6 6 6 6 6 6 6 6 6 6 6 7 7 7 7 7 7 8 8 8 9 9 10 10 11 11 11 11 12 12 12 12
-1 -0 0 1 2 3 4 5 6 7 8 9 10 10 10 8 6 4 3 2 2 3 3 4 4 4 5 5 5 5 6 6 6 6 6 6 6 6 6 6 6 6 6 6 6 6 6 7 7 7 7 7 8 8 8 8 9 10 10 10 10 11 12 12 13 13 13 13 13
-0 0 1 3 4 5 6 6 8 9 10 11 10 10 8 6 4 3 2 2 2 3 4 4 4 5 5 5 5 6 6 6 6 6 6 6 6 6 6 6 6 6 6 6 6 7 7 7 7 7 8 8 8 8 9 9 10 10 10 11 11 11 12 13 13 13 13 14 14
1 2 3 4 5 6 7 8 9 10 11 11 9 8 6 4 3 2 2 2 3 4 4 4 5 5 5 6 6 6 6 6 6 6 6 6 6 6 6 6 6 6 6 6 7 7 7 7 7 7 8 8 9 9 9 10 10 10 11 11 12 12 12 13 14 14 14 14 14
4 4 5 6 6 7 8 10 11 11 11 10 7 6 4 3 2 2 2 3 4 4 4 5 5 6 6 6 6 6 6 6 6 6 6 6 6 6 6 6 6 6 7 7 7 7 7 7 7 8 8 9 9 10 10 10 11 11 11 11 12 12 13 13 14 14 14 13 14
6 6 6 7 7 8 10 11 11 11 10 8 6 4 3 2 2 2 3 4 4 4 5 5 6 6 6 6 6 6 7 7 6 6 6 6 6 6 6 6 6 7 7 7 7 7 7 8 8 8 8 9 10 10 11 10 11 11 11 11 12 13 13 14 14 14 14 14 15
7 7 7 7 9 10 12 12 11 10 8 6 4 3 2 2 2 3 4 4 5 5 6 6 6 6 6 7 7 7 7 7 6 6 6 6 6 6 6 6 7 7 7 7 7 8 8 8 9 9 9 9 10 11 11 11 11 11 12 12 13 13 14 14 14 14 14 15 16
6 6 7 9 11 12 12 12 9 7 6 4 3 2 2 2 3 3 4 5 5 6 6 6 7 7 7 7 7 7 7 6 6 6 6 6 6 6 6 6 7 7 7 7 8 8 9 9 9 9 10 10 10 11 11 12 12 12 12 13 13 14 14 15 15 15 16 16 15
6 8 10 12 13 13 12 10 7 6 4 3 2 2 2 2 3 4 5 5 6 6 7 7 7 7 7 7 7 7 6 6 6 6 6 6 6 6 6 7 7 7 7 8 8 9 9 10 10 10 10 10 11 11 11 12 12 12 13 14 14 14 15 15 15 16 16 16 16
8 10 12 13 13 11 9 7 5 4 3 2 2 2 2 3 4 5 6 6 6 7 7 7 7 7 7 7 7 6 6 6 6 6 6 6 6 6 7 7 7 7 8 8 8 9 9 10 10 10 11 11 11 11 12 12 12 13 13 14 15 15 16 16 16 16 16 16 16
12 13 13 13 11 9 7 5 4 3 2 2 2 2 3 4 5 6 6 7 7 7 7 7 7 7 6 6 6 6 6 6 6 6 6 6 6 6 7 7 7 8 8 9 9 9 9 10 10 11 11 11 12 12 12 12 12 13 13 14 15 16 16 16 16 16 15 15 14
13 13 12 11 8 6 5 4 2 2 2 2 2 4 4 6 6 7 7 7 7 7 7 7 7 6 6 6 6 6 6 6 6 6 6 6 6 7 7 7 8 8 9 9 9 10 10 10 10 11 11 12 12 12 12 12 12 13 13 14 14 15 16 16 15 15 15 14 13
13 11 10 8 6 4 3 2 2 2 2 2 4 5 6 7 7 7 7 7 7 7 7 7 6 6 6 6 6 6 6 6 6 6 6 6 7 7 7 8 8 9 9 9 10 10 10 10 11 12 12 12 12 12 12 12 12 13 13 14 14 14 15 14 14 14 14 14 13
10 8 7 5 4 3 2 2 1 2 3 4 5 6 7 7 7 7 7 7 7 7 6 6 6 6 6 6 6 6 6 6 6 6 6 6 7 7 8 8 8 9 9 10 10 10 11 11 12 12 12 12 12 11 11 11 11 12 13 13 14 14 14 14 14 14 13 13 13
7 6 4 4 3 2 2 1 2 3 4 6 6 7 7 7 7 7 7 7 6 6 6 6 6 6 6 6 6 6 6 6 6 6 6 7 7 8 8 8 9 9 10 11 11 11 11 12 12 12 12 11 11 11 11 11 11 11 12 13 13 13 14 14 14 13 13 13 12
5 4 4 3 2 2 2 2 3 5 6 7 7 7 7 7 7 7 7 6 6 6 6 6 6 6 6 6 6 6 6 6 6 6 7 7 7 8 8 9 10 10 11 11 11 11 11 12 12 12 12 11 11 11 11 11 11 11 12 12 13 13 13 14 14 13 13 12 12
4 3 2 2 2 2 2 4 5 6 7 8 7 7 7 6 6 6 6 6 6 6 6 6 6 6 6 6 6 6 6 6 6 6 7 8 8 8 9 10 11 11 11 11 12 12 13 12 12 12 12 12 11 11 11 11 12 12 12 12 13 13 13 14 14 13 13 12 12
3 2 2 2 2 3 4 6 7 8 8 7 7 6 6 6 6 6 6 6 6 6 6 6 6 6 6 6 6 6 6 6 6 6 7 8 9 9 9 10 11 12 12 12 12 13 13 14 13 12 12 12 12 11 11 12 12 13 13 13 13 13 13 14 14 14 14 13 12
2 2 2 2 4 5 6 8 8 7 7 6 6 6 6 6 6 6 6 6 6 6 6 5 5 6 6 6 5 6 6 7 7 7 7 8 9 10 10 11 12 12 12 12 13 13 13 13 13 13 12 12 11 11 11 12 12 13 13 14 14 14 13 13 14 14 14 13 12
2 2 3 4 6 7 8 8 7 7 6 6 6 6 6 6 6 6 6 6 6 6 5 5 6 6 5 5 6 6 7 7 8 8 9 9 9 10 11 12 12 13 13 13 13 13 13 12 12 12 12 11 11 11 11 10 12 12 13 14 14 15 15 15 14 14 14 14 13
2 3 5 7 8 8 8 7 6 6 6 6 6 6 6 6 6 6 6 6 6 5 5 5 6 5 5 6 6 7 7 7 8 9 9 10 10 11 12 12 13 13 13 13 13 13 13 12 12 12 12 11 11 11 11 11 11 12 14 14 15 15 16 16 15 15 14 14 13
4 6 7 8 8 7 7 6 6 6 6 6 6 6 6 6 6 6 6 6 5 5 5 5 5 5 6 6 7 7 8 8 9 10 10 10 11 12 13 13 13 13 13 13 13 12 12 12 12 12 11 11 11 11 11 12 12 13 14 15 16 16 16 16 15 15 14 13 13
7 8 8 8 7 6 6 5 6 6 6 6 6 6 6 6 6 6 6 6 6 6 6 5 5 6 6 7 7 8 9 10 10 10 11 11 12 12 13 13 13 13 13 13 12 12 12 11 11 11 11 11 10 11 11 12 13 14 14 16 16 16 16 16 15 14 13 13 12
8 8 8 7 6 5 5 5 6 6 6 6 6 6 6 6 6 6 6 6 6 5 5 5 6 6 7 7 8 8 9 10 10 11 12 12 12 12 12 12 13 13 13 13 12 12 11 11 11 11 11 10 11 11 12 13 14 15 16 16 16 16 16 15 14 13 12 12 11
8 8 7 6 5 5 5 6 6 6 6 6 6 6 6 6 6 6 6 6 5 5 5 6 6 7 7 8 9 9 10 10 11 12 12 12 12 12 12 13 13 13 13 12 11 11 11 10 10 10 11 11 11 12 12 13 14 15 16 17 16 16 15 14 13 12 11 11 10
7 6 6 5 5 5 6 6 6 6 6 7 7 6 6 6 6 6 6 6 6 6 6 6 7 7 8 8 9 10 11 12 12 12 12 12 12 12 12 13 13 13 12 11 11 10 10 10 10 11 11 11 11 12 13 14 15 16 16 17 16 15 14 13 12 11 10 10 9
6 6 5 5 5 6 6 6 6 7 7 7 7 6 6 6 6 6 6 6 6 6 6 7 8 8 9 9 10 10 11 12 12 12 12 12 12 12 12 13 13 13 12 11 10 10 10 10 11 11 11 11 12 13 14 15 16 16 16 16 15 14 13 12 11 11 10 10 9
6 5 5 6 6 6 7 7 7 7 7 7 7 6 6 6 6 6 6 6 6 6 7 8 8 9 9 10 11 11 11 12 12 13 12 12 12 12 12 12 12 12 12 11 10 10 10 10 11 11 12 12 13 14 15 16 16 16 16 15 14 13 13 12 11 10 10 9 9
6 6 6 6 7 7 7 7 7 7 7 7 6 6 6 6 6 6 6 6 6 6 7 8 8 9 10 10 12 13 13 12 12 12 12 12 12 12 12 11 11 12 11 11 10 10 10 11 12 12 12 13 14 15 16 16 16 16 15 14 14 13 12 11 11 10 9 8 9
6 6 6 7 7 7 7 7 7 7 7 7 6 6 6 6 6 6 6 6 7 7 8 8 9 10 11 11 12 13 13 13 12 12 12 13 13 12 11 11 11 11 11 10 10 10 10 11 12 13 13 14 14 15 16 16 15 15 15 14 13 12 12 11 10 10 9 8 9
6 7 7 7 8 8 8 7 7 7 6 6 6 6 6 6 6 7 7 8 8 7 8 9 10 11 12 12 12 12 12 13 13 12 12 13 13 12 10 10 11 11 11 10 10 10 10 12 13 14 14 14 15 15 15 15 14 14 14 13 13 12 11 11 10 9 8 7 9
7 7 7 8 8 8 7 7 7 7 6 6 6 6 6 7 7 7 8 8 8 8 8 10 11 12 12 11 11 12 12 13 14 13 12 12 12 12 11 10 10 10 10 10 10 10 11 12 13 14 15 15 15 15 14 14 14 14 13 13 13 12 11 10 10 9 8 7 10
8 8 8 8 7 7 7 7 7 6 6 6 6 6 7 7 7 8 8 9 9 10 10 10 11 11 12 12 12 12 12 12 13 13 13 12 11 11 11 10 10 10 10 10 10 11 12 13 14 15 16 15 15 14 14 13 13 13 12 12 12 12 12 10 9 8 7 7 10
8 8 8 7 7 7 7 6 6 6 6 7 7 7 7 7 8 8 8 9 10 10 11 11 11 11 12 12 12 12 11 12 13 13 12 11 11 11 11 10 9 9 10 10 10 11 12 13 15 15 16 15 14 13 13 13 13 12 12 12 12 12 12 11 9 7 6 7 11
Height
3142 3142 3141 3141 3140 3140 3139 3139 3138 3137 3136 3135 3135 3134 3133 3132 3131 3130 3130 3129 3128 3127 3126 3125 3124 3122 3121 3120 3119 3118 3116 3115 3114 3112 3111 3110 3108 3107 3105 3104 3102 3101 3100 3098 3096 3095 3093 3092 3090 3089 3087 3086 3084 3083 3081 3080 3078 3076 3074 3073 3071 3070 3068 3066 3065 3063 3061 3060 3058
3140 3140 3140 3139 3139 3138 3137 3137 3136 3135 3134 3134 3133 3132 3131 3130 3130 3129 3127 3126 3125 3125 3124 3122 3121 3120 3119 3118 3116 3115 3114 3112 3111 3110 3109 3107 3106 3105 3103 3101 3100 3099 3097 3095 3094 3092 3091 3089 3087 3086 3085 3083 3081 3080 3078 3076 3075 3073 3071 3070 3068 3066 3065 3063 3061 3060 3058 3056 3054
3139 3138 3138 3137 3137 3136 3135 3135 3134 3133 3133 3132 3131 3130 3129 3128 3127 3126 3125 3124 3123 3122 3121 3120 3119 3118 3116 3115 3114 3113 3111 3110 3109 3108 3106 3105 3104 3102 3101 3099 3098 3096 3095 3093 3091 3090 3088 3086 3085 3083 3082 3080 3079 3077 3075 3074 3072 3070 3068 3067 3065 3063 3061 3060 3058 3056 3055 3053 3051
3137 3136 3136 3135 3135 3134 3134 3133 3132 3131 3131 3130 3129 3128 3127 3126 3125 3124 3123 3122 3121 3120 3119 3118 3116 3115 3114 3113 3111 3110 3109 3108 3106 3105 3104 3103 3101 3100 3098 3097 3095 3094 3092 3090 3089 3087 3085 3084 3082 3080 3079 3077 3075 3074 3072 3070 3069 3067 3065 3064 3062 3060 3058 3056 3055 3053 3051 3049 3047
3135 3134 3134 3133 3133 3132 3132 3131 3130 3130 3129 3128 3127 3126 3125 3124 3123 3122 3121 3120 3119 3118 3116 3115 3114 3113 3112 3110 3109 3108 3106 3105 3104 3103 3101 3100 3099 3097 3096 3094 3093 3091 3090 3088 3086 3084 3083 3081 3079 3078 3076 3074 3072 3071 3069 3067 3065 3064 3062 3060 3059 3057 3055 3053 3051 3049 3047 3045 3043
3133 3132 3132 3131 3131 3130 3130 3129 3128 3127 3126 3125 3125 3124 3123 3122 3121 3120 3119 3118 3116 3115 3114 3113 3112 3110 3109 3108 3107 3105 3104 3103 3102 3100 3099 3098 3096 3095 3093 3092 3090 3088 3087 3085 3083 3081 3080 3078 3076 3075 3073 3071 3069 3067 3066 3064 3062 3060 3059 3057 3055 3053 3051 3049 3047 3045 3044 3041 3040
3131 3131 3130 3130 3129 3128 3128 3127 3126 3125 3124 3123 3122 3121 3120 3119 3118 3117 3116 3115 3114 3113 3112 3110 3109 3108 3107 3105 3104 3103 3102 3100 3099 3098 3096 3095 3094 3092 3090 3089 3087 3085 3084 3082 3080 3078 3077 3075 3073 3071 3070 3068 3066 3064 3062 3060 3059 3057 3055 3054 3052 3050 3048 3046 3044 3042 3040 3038 3035
3129 3129 3128 3128 3127 3126 3125 3125 3124 3123 3122 3121 3120 3119 3118 3117 3116 3115 3114 3113 3112 3110 3109 3108 3107 3105 3104 3103 3102 3100 3099 3098 3097 3095 3094 3092 3091 3089 3088 3086 3084 3083 3081 3079 3077 3075 3074 3072 3070 3068 3066 3065 3063 3061 3059 3057 3055 3053 3051 3050 3048 3046 3044 3042 3040 3038 3036 3034 3031
3128 3127 3126 3126 3125 3124 3124 3123 3122 3121 3120 3119 3118 3117 3115 3115 3114 3113 3112 3110 3109 3108 3107 3105 3104 3103 3102 3100 3099 3098 3097 3095 3094 3093 3091 3090 3088 3086 3085 3083 3081 3080 3078 3076 3074 3072 3070 3069 3067 3065 3063 3061 3059 3057 3055 3053 3051 3049 3047 3046 3044 3042 3040 3039 3036 3034 3032 3030 3028
3126 3125 3125 3124 3123 3122 3121 3120 3120 3118 3117 3116 3115 3114 3113 3112 3111 3110 3109 3108 3107 3105 3104 3103 3102 3100 3099 3098 3097 3095 3094 3093 3091 3090 3088 3087 3085 3083 3082 3080 3078 3077 3075 3073 3071 3069 3067 3065 3063 3061 3059 3057 3055 3053 3051 3049 3047 3045 3043 3042 3040 3038 3036 3035 3033 3030 3028 3025 3024
3124 3123 3123 3122 3121 3120 3119 3118 3117 3116 3115 3114 3113 3112 3111 3110 3109 3108 3107 3106 3105 3103 3102 3100 3099 3098 3097 3095 3094 3093 3091 3090 3089 3087 3085 3084 3082 3080 3079 3077 3075 3073 3072 3070 3068 3066 3064 3061 3060 3058 3055 3054 3051 3049 3047 3045 3043 3041 3040 3038 3036 3034 3033 3031 3029 3026 3024 3022 3020
3122 3121 3120 3120 3119 3118 3117 3116 3115 3114 3113 3112 3111 3110 3109 3108 3106 3105 3104 3103 3102 3101 3099 3098 3097 3095 3094 3093 3092 3090 3089 3087 3086 3084 3083 3081 3079 3077 3075 3074 3072 3070 3068 3066 3064 3062 3060 3058 3056 3054 3052 3050 3048 3045 3043 3041 3039 3037 3035 3034 3032 3030 3029 3027 3025 3022 3020 3018 3016
3120 3119 3118 3117 3116 3115 3115 3114 3113 3112 3110 3110 3109 3107 3106 3105 3104 3103 3102 3101 3100 3099 3097 3096 3095 3093 3092 3090 3089 3088 3086 3085 3083 3081 3080 3078 3076 3074 3072 3070 3069 3067 3065 3063 3061 3059 3056 3054 3052 3050 3048 3046 3044 3042 3040 3038 3035 3033 3032 3030 3028 3026 3025 3023 3020 3018 3016 3014 3012
3118 3117 3116 3115 3114 3113 3112 3111 3110 3110 3109 3107 3106 3105 3104 3103 3102 3101 3100 3098 3097 3096 3095 3094 3092 3091 3089 3088 3086 3085 3083 3082 3080 3078 3076 3075 3073 3071 3069 3067 3065 3064 3061 3059 3057 3055 3053 3050 3048 3046 3044 3042 3040 3038 3036 3034 3032 3030 3028 3026 3024 3022 3020 3018 3016 3014 3012 3010 3008
3115 3115 3114 3113 3112 3111 3110 3109 3108 3107 3106 3105 3104 3103 3102 3101 3100 3098 3097 3096 3095 3094 3092 3091 3090 3088 3087 3085 3083 3082 3080 3079 3077 3075 3073 3072 3070 3068 3066 3064 3062 3060 3058 3056 3054 3051 3049 3047 3044 3042 3040 3038 3036 3035 3032 3030 3028 3026 3024 3022 3020 3018 3016 3014 3012 3010 3008 3006 3004
3113 3112 3112 3111 3110 3109 3108 3107 3106 3105 3104 3103 3102 3101 3100 3099 3097 3096 3095 3094 3092 3091 3090 3089 3087 3085 3084 3082 3081 3079 3077 3075 3074 3072 3070 3068 3066 3065 3063 3060 3059 3056 3054 3052 3050 3048 3046 3043 3041 3039 3036 3034 3032 3030 3029 3026 3024 3022 3020 3018 3016 3014 3012 3010 3008 3006 3004 3002 3000
3111 3110 3109 3108 3108 3107 3106 3105 3104 3103 3102 3101 3100 3099 3097 3096 3095 3094 3092 3091 3090 3089 3087 3086 3085 3083 3081 3080 3078 3076 3074 3072 3070 3069 3067 3065 3063 3061 3059 3057 3055 3053 3051 3049 3046 3044 3042 3040 3038 3035 3033 3031 3029 3027 3025 3022 3020 3019 3016 3015 3012 3010 3008 3006 3004 3002 3000 2998 2996
3109 3108 3107 3106 3105 3105 3104 3103 3102 3101 3100 3099 3097 3096 3095 3094 3093 3091 3090 3089 3087 3086 3085 3083 3081 3080 3078 3077 3075 3073 3071 3069 3067 3065 3064 3061 3060 3057 3055 3054 3051 3049 3047 3045 3043 3040 3039 3036 3034 3032 3030 3027 3025 3023 3021 3019 3017 3015 3013 3011 3009 3007 3005 3003 3001 2999 2997 2995 2994
3106 3105 3105 3104 3103 3102 3101 3100 3100 3099 3097 3096 3095 3094 3092 3091 3090 3089 3087 3086 3085 3083 3082 3080 3079 3077 3075 3074 3072 3070 3068 3066 3064 3062 3060 3058 3056 3054 3052 3050 3048 3046 3044 3041 3039 3037 3035 3033 3030 3028 3026 3024 3022 3020 3017 3015 3013 3011 3010 3008 3006 3004 3002 3000 2999 2997 2995 2993 2991
3104 3103 3103 3102 3101 3100 3099 3098 3097 3096 3095 3094 3092 3091 3090 3089 3088 3086 3085 3083 3082 3080 3079 3077 3075 3074 3072 3070 3069 3067 3065 3063 3061 3059 3057 3055 3053 3051 3049 3046 3045 3042 3040 3038 3036 3033 3031 3029 3027 3025 3022 3020 3018 3016 3014 3012 3010 3008 3006 3005 3003 3001 3000 2998 2996 2994 2992 2990 2988
3102 3101 3100 3100 3099 3098 3097 3096 3095 3094 3092 3091 3090 3089 3088 3086 3085 3084 3082 3080 3079 3077 3075 3074 3072 3070 3069 3067 3065 3064 3062 3060 3058 3055 3053 3051 3050 3047 3045 3043 3041 3039 3037 3035 3032 3030 3027 3025 3023 3021 3019 3016 3015 3012 3010 3009 3007 3005 3004 3002 3000 2998 2997 2995 2993 2991 2989 2987 2985
3100 3099 3098 3098 3097 3096 3095 3093 3092 3091 3090 3089 3087 3086 3085 3084 3082 3081 3079 3077 3076 3074 3072 3071 3069 3067 3065 3064 3062 3060 3058 3056 3054 3052 3050 3048 3046 3044 3042 3040 3037 3035 3033 3031 3029 3026 3024 3022 3020 3017 3015 3013 3011 3009 3007 3005 3003 3001 3000 2998 2997 2995 2993 2991 2990 2988 2986 2984 2982
3098 3097 3096 3095 3094 3093 3092 3091 3090 3089 3087 3086 3085 3084 3082 3081 3079 3078 3076 3074 3073 3071 3069 3067 3066 3064 3062 3060 3059 3057 3055 3053 3051 3049 3047 3045 3043 3040 3038 3036 3034 3032 3030 3027 3025 3022 3020 3018 3016 3014 3011 3009 3007 3005 3003 3001 2999 2997 2996 2994 2992 2991 2989 2987 2985 2984 2982 2980 2978
3095 3095 3094 3093 3092 3091 3090 3089 3087 3086 3085 3084 3082 3081 3080 3078 3076 3075 3073 3071 3070 3068 3066 3064 3063 3061 3059 3057 3055 3053 3051 3050 3047 3045 3044 3041 3039 3037 3035 3033 3030 3028 3026 3024 3021 3019 3016 3014 3012 3010 3008 3005 3003 3001 2999 2997 2995 2993 2991 2990 2988 2986 2985 2983 2981 2980 2978 2976 2975
3093 3093 3092 3091 3090 3088 3087 3086 3085 3083 3082 3081 3079 3078 3076 3075 3073 3071 3070 3068 3066 3065 3063 3061 3060 3058 3056 3054 3052 3050 3048 3046 3044 3042 3040 3038 3036 3034 3032 3030 3027 3025 3023 3020 3018 3016 3013 3011 3008 3006 3004 3001 2999 2997 2995 2993 2991 2989 2987 2985 2984 2982 2980 2979 2977 2976 2974 2973 2971
3091 3090 3089 3088 3087 3086 3085 3083 3082 3080 3079 3078 3076 3075 3073 3071 3070 3068 3067 3065 3063 3062 3060 3058 3056 3055 3053 3051 3049 3047 3045 3043 3040 3038 3036 3035 3032 3030 3028 3026 3024 3022 3020 3017 3015 3013 3010 3008 3005 3003 3000 2998 2995 2994 2991 2990 2988 2986 2984 2982 2980 2978 2976 2975 2973 2972 2970 2969 2968
3089 3088 3087 3086 3085 3083 3082 3080 3079 3078 3076 3075 3073 3071 3070 3068 3067 3065 3064 3062 3060 3059 3057 3055 3053 3052 3050 3048 3046 3044 3042 3040 3037 3035 3033 3031 3029 3027 3025 3023 3021 3018 3016 3014 3011 3010 3007 3005 3003 3000 2997 2995 2992 2990 2988 2986 2984 2983 2981 2979 2977 2975 2973 2971 2970 2968 2967 2965 2964
3087 3085 3084 3083 3082 3080 3079 3077 3076 3074 3073 3071 3070 3068 3067 3065 3064 3062 3060 3059 3057 3055 3054 3052 3050 3049 3047 3045 3043 3040 3039 3036 3034 3032 3030 3027 3025 3023 3021 3019 3017 3015 3013 3010 3008 3006 3004 3002 3000 2997 2995 2992 2989 2987 2985 2983 2981 2979 2977 2976 2974 2972 2970 2968 2966 2965 2963 2962 2961
3084 3083 3082 3080 3079 3078 3076 3074 3073 3071 3070 3068 3067 3065 3064 3062 3061 3059 3057 3055 3054 3052 3051 3049 3047 3045 3043 3041 3039 3037 3035 3033 3031 3029 3026 3024 3022 3020 3018 3016 3014 3012 3010 3007 3005 3003 3000 2998 2996 2994 2992 2989 2986 2984 2982 2980 2978 2976 2974 2972 2971 2969 2967 2965 2963 2961 2960 2959 2957
3081 3080 3079 3077 3076 3075 3073 3071 3070 3068 3067 3065 3064 3062 3061 3059 3058 3056 3054 3053 3051 3049 3047 3046 3044 3042 3040 3038 3036 3034 3032 3030 3027 3025 3023 3021 3019 3017 3015 3013 3010 3008 3006 3004 3002 2999 2997 2995 2993 2991 2989 2986 2983 2981 2979 2977 2975 2973 2971 2969 2968 2966 2964 2962 2960 2959 2957 2955 2954
3078 3077 3075 3074 3073 3071 3070 3068 3067 3065 3064 3062 3061 3060 3058 3056 3055 3053 3051 3050 3048 3046 3044 3043 3041 3039 3037 3035 3033 3030 3029 3026 3024 3022 3020 3017 3015 3013 3011 3009 3007 3005 3003 3000 2998 2996 2994 2992 2990 2988 2985 2983 2980 2978 2976 2974 2972 2970 2968 2966 2965 2963 2961 2959 2957 2956 2954 2953 2951
3075 3074 3072 3071 3070 3068 3067 3065 3064 3062 3061 3060 3058 3057 3055 3053 3052 3050 3048 3046 3045 3043 3041 3039 3037 3035 3033 3031 3029 3027 3025 3023 3021 3019 3016 3014 3012 3010 3008 3006 3004 3002 3000 2997 2995 2993 2991 2989 2986 2984 2982 2980 2977 2975 2973 2971 2969 2967 2965 2964 2962 2960 2958 2956 2955 2953 2951 2950 2948
3072 3070 3069 3068 3067 3065 3064 3062 3061 3060 3058 3057 3055 3054 3052 3050 3049 3047 3045 3043 3041 3039 3037 3036 3034 3032 3030 3028 3026 3024 3022 3020 3018 3015 3013 3010 3008 3006 3004 3002 3000 2998 2996 2994 2991 2990 2987 2985 2983 2981 2979 2976 2974 2972 2970 2968 2966 2965 2963 2961 2959 2958 2956 2954 2952 2950 2949 2947 2945
3069 3067 3066 3065 3064 3062 3061 3060 3058 3057 3055 3054 3052 3051 3049 3047 3045 3044 3042 3040 3038 3036 3034 3032 3030 3028 3026 3025 3022 3020 3018 3016 3014 3012 3010 3007 3005 3003 3001 2999 2997 2995 2993 2990 2988 2986 2984 2982 2980 2978 2975 2973 2971 2969 2967 2965 2963 2962 2960 2958 2957 2955 2953 2951 2950 2948 2946 2944 2942
3066 3065 3063 3062 3061 3060 3058 3057 3055 3054 3052 3051 3049 3048 3046 3044 3042 3040 3038 3036 3035 3033 3031 3029 3027 3025 3023 3021 3019 3017 3015 3013 3010 3008 3006 3004 3001 2999 2997 2996 2994 2992 2990 2987 2985 2983 2981 2979 2977 2974 2972 2970 2968 2966 2964 2962 2960 2959 2957 2955 2954 2952 2950 2949 2947 2945 2943 2942 2940
3063 3062 3061 3060 3058 3057 3055 3054 3053 3051 3050 3048 3046 3045 3043 3041 3039 3037 3035 3033 3031 3029 3027 3026 3024 3021 3020 3017 3015 3013 3011 3009 3007 3005 3003 3000 2998 2996 2994 2992 2991 2989 2987 2984 2982 2980 2978 2975 2973 2971 2969 2966 2964 2962 2961 2959 2958 2956 2955 2953 2951 2950 2948 2946 2945 2943 2940 2939 2937
3060 3059 3058 3057 3055 3054 3053 3051 3050 3048 3046 3045 3043 3041 3040 3038 3036 3034 3032 3030 3028 3025 3024 3022 3020 3018 3016 3014 3012 3010 3008 3006 3004 3001 2999 2997 2995 2992 2990 2989 2987 2985 2984 2981 2979 2976 2974 2972 2970 2968 2965 2963 2961 2959 2957 2956 2955 2953 2951 2950 2948 2946 2945 2944 2942 2940 2938 2936 2934
3058 3057 3055 3054 3053 3051 3050 3048 3046 3045 3043 3041 3040 3038 3036 3035 3032 3030 3028 3026 3024 3022 3020 3019 3017 3015 3012 3010 3008 3006 3005 3003 3000 2998 2995 2993 2991 2989 2987 2985 2984 2982 2980 2978 2975 2973 2971 2969 2967 2965 2962 2960 2958 2956 2954 2953 2951 2950 2948 2947 2945 2944 2942 2941 2939 2937 2935 2934 2931
3055 3054 3053 3051 3050 3048 3046 3045 3043 3041 3040 3038 3036 3035 3033 3031 3029 3027 3025 3023 3020 3019 3016 3015 3013 3011 3009 3007 3005 3003 3001 2999 2997 2995 2992 2990 2988 2986 2984 2982 2980 2978 2977 2975 2972 2970 2968 2966 2964 2961 2959 2957 2955 2953 2951 2950 2948 2946 2945 2944 2942 2941 2939 2938 2936 2935 2933 2931 2929
3053 3051 3050 3048 3046 3045 3043 3042 3040 3038 3036 3035 3033 3031 3029 3028 3026 3024 3022 3020 3017 3015 3013 3011 3009 3007 3005 3003 3001 2999 2997 2996 2994 2992 2990 2987 2985 2983 2981 2979 2977 2975 2973 2971 2969 2967 2965 2963 2961 2959 2956 2954 2951 2950 2948 2946 2945 2943 2942 2941 2940 2938 2936 2935 2934 2932 2930 2929 2927
3050 3049 3047 3045 3043 3042 3040 3038 3036 3035 3033 3031 3030 3028 3026 3024 3022 3020 3018 3016 3014 3011 3009 3007 3005 3003 3001 2999 2997 2995 2994 2992 2990 2989 2987 2984 2982 2980 2978 2976 2974 2972 2970 2968 2966 2964 2962 2960 2958 2956 2953 2951 2949 2947 2945 2943 2942 2940 2939 2938 2936 2935 2933 2932 2930 2929 2927 2926 2924